• In Romania
  • List of Countries
  • For 7 days
  • Water Temperature
  • Satellite Maps
  • Weather Map
  • Weather Widgets
  • user-avatar
    Login

    Hourly Weather Oran

    Today, 21 February, Wednesday

    Time Temperature Precipitation Wind Pressure Humidity
    00:00 +11°C° 0 mm 4 mps 748 mmHg 69%
    01:00 +11°C° 0 mm 3 mps 748 mmHg 67%
    02:00 +11°C° 0 mm 3 mps 747 mmHg 65%
    03:00 +11°C° 0 mm 3 mps 747 mmHg 63%
    04:00 +11°C° 0 mm 3 mps 746 mmHg 64%
    05:00 +12°C° 0 mm 2 mps 746 mmHg 64%
    06:00 +12°C° 0 mm 2 mps 745 mmHg 60%
    07:00 +14°C° 0 mm 2 mps 745 mmHg 57%
    08:00 +15°C° 0 mm 2 mps 745 mmHg 54%
    09:00 +16°C° 0 mm 2 mps 744 mmHg 51%
    10:00 +17°C° 0 mm 3 mps 744 mmHg 50%
    11:00 +17°C° 0 mm 4 mps 744 mmHg 49%
    12:00 +18°C° 0 mm 4 mps 744 mmHg 48%
    13:00 +17°C° 0 mm 4 mps 743 mmHg 54%
    14:00 +15°C° 0 mm 4 mps 743 mmHg 60%
    15:00 +14°C° 0 mm 4 mps 743 mmHg 66%
    16:00 +13°C° 0.1 mm 3 mps 743 mmHg 70%
    17:00 +12°C° 0.1 mm 3 mps 743 mmHg 73%
    18:00 +13°C° 0.1 mm 2 mps 743 mmHg 77%
    19:00 +12°C° 0 mm 2 mps 743 mmHg 77%
    20:00 +12°C° 0 mm 2 mps 744 mmHg 77%
    21:00 +12°C° 0 mm 2 mps 744 mmHg 77%
    22:00 +10°C° 0.2 mm 3 mps 744 mmHg 78%
    23:00 +9°C° 0.2 mm 5 mps 744 mmHg 79%

    Tomorrow, 22 February, Thursday

    Time Temperature Precipitation Wind Pressure Humidity
    00:00 +8°C° 0.2 mm 6 mps 745 mmHg 80%
    01:00 +8°C° 0.1 mm 6 mps 745 mmHg 83%
    02:00 +8°C° 0.1 mm 6 mps 744 mmHg 86%
    03:00 +7°C° 0.1 mm 5 mps 744 mmHg 88%
    04:00 +7°C° 0.1 mm 5 mps 744 mmHg 87%
    05:00 +7°C° 0.1 mm 5 mps 744 mmHg 86%
    06:00 +7°C° 0.1 mm 4 mps 744 mmHg 85%
    07:00 +8°C° 0.1 mm 4 mps 745 mmHg 78%
    08:00 +10°C° 0.1 mm 3 mps 745 mmHg 71%
    09:00 +11°C° 0.1 mm 3 mps 745 mmHg 65%
    10:00 +12°C° 0.1 mm 2 mps 745 mmHg 60%
    11:00 +13°C° 0.1 mm 2 mps 745 mmHg 55%
    12:00 +14°C° 0.1 mm 1 mps 745 mmHg 51%
    13:00 +14°C° 0 mm 2 mps 745 mmHg 50%
    14:00 +15°C° 0 mm 2 mps 745 mmHg 49%
    15:00 +14°C° 0 mm 3 mps 744 mmHg 49%
    16:00 +13°C° 0 mm 3 mps 744 mmHg 55%
    17:00 +12°C° 0 mm 2 mps 744 mmHg 62%
    18:00 +10°C° 0 mm 2 mps 744 mmHg 68%
    19:00 +9°C° 0 mm 2 mps 744 mmHg 71%
    20:00 +9°C° 0 mm 2 mps 745 mmHg 74%
    21:00 +8°C° 0 mm 2 mps 745 mmHg 76%
    22:00 +8°C° 0 mm 2 mps 745 mmHg 77%
    23:00 +8°C° 0 mm 2 mps 745 mmHg 77%

    Day after tomorrow, 23 February, Friday

    Time Temperature Precipitation Wind Pressure Humidity
    00:00 +8°C° 0 mm 3 mps 745 mmHg 78%
    01:00 +8°C° 0.1 mm 3 mps 745 mmHg 79%
    02:00 +8°C° 0.1 mm 3 mps 745 mmHg 80%
    03:00 +8°C° 0.1 mm 3 mps 744 mmHg 81%
    04:00 +7°C° 0 mm 3 mps 745 mmHg 82%
    05:00 +7°C° 0 mm 3 mps 745 mmHg 83%
    06:00 +7°C° 0 mm 3 mps 745 mmHg 84%
    07:00 +9°C° 0 mm 3 mps 745 mmHg 76%
    08:00 +10°C° 0 mm 3 mps 745 mmHg 68%
    09:00 +12°C° 0 mm 4 mps 746 mmHg 60%
    10:00 +13°C° 0 mm 4 mps 746 mmHg 55%
    11:00 +14°C° 0 mm 4 mps 745 mmHg 50%
    12:00 +14°C° 0 mm 4 mps 745 mmHg 45%
    13:00 +15°C° 0 mm 4 mps 745 mmHg 44%
    14:00 +15°C° 0 mm 5 mps 744 mmHg 43%
    15:00 +16°C° 0 mm 5 mps 744 mmHg 41%
    16:00 +14°C° 0 mm 5 mps 744 mmHg 46%
    17:00 +13°C° 0 mm 6 mps 744 mmHg 51%
    18:00 +10°C° 0 mm 6 mps 744 mmHg 56%
    19:00 +10°C° 0 mm 6 mps 744 mmHg 59%
    20:00 +9°C° 0 mm 5 mps 744 mmHg 62%
    21:00 +8°C° 0 mm 5 mps 744 mmHg 65%
    22:00 +8°C° 0 mm 5 mps 744 mmHg 66%
    23:00 +7°C° 0 mm 5 mps 744 mmHg 66%

    24 February, Saturday

    Time Temperature Precipitation Wind Pressure Humidity
    00:00 +7°C° 0 mm 4 mps 744 mmHg 67%
    01:00 +7°C° 0 mm 4 mps 744 mmHg 68%
    02:00 +6°C° 0 mm 4 mps 744 mmHg 68%
    03:00 +7°C° 0 mm 3 mps 743 mmHg 69%
    04:00 +7°C° 0 mm 3 mps 743 mmHg 70%
    05:00 +7°C° 0 mm 3 mps 743 mmHg 72%
    06:00 +5°C° 0 mm 3 mps 743 mmHg 74%
    07:00 +8°C° 0 mm 3 mps 743 mmHg 67%
    08:00 +10°C° 0 mm 3 mps 744 mmHg 60%
    09:00 +12°C° 0 mm 2 mps 744 mmHg 53%
    10:00 +12°C° 0 mm 3 mps 744 mmHg 50%
    11:00 +13°C° 0 mm 3 mps 744 mmHg 47%
    12:00 +14°C° 0 mm 3 mps 745 mmHg 44%
    13:00 +16°C° 0 mm 3 mps 744 mmHg 45%
    14:00 +15°C° 0 mm 4 mps 744 mmHg 45%
    15:00 +15°C° 0 mm 4 mps 744 mmHg 45%
    16:00 +13°C° 0 mm 3 mps 745 mmHg 52%
    17:00 +12°C° 0 mm 3 mps 746 mmHg 59%
    18:00 +10°C° 0 mm 2 mps 746 mmHg 66%
    19:00 +9°C° 0 mm 2 mps 747 mmHg 72%
    20:00 +10°C° 0 mm 1 mps 747 mmHg 77%
    21:00 +9°C° 0 mm 1 mps 748 mmHg 83%
    22:00 +9°C° 0 mm 1 mps 748 mmHg 83%
    23:00 +8°C° 0 mm 1 mps 748 mmHg 84%

    25 February, Sunday

    Time Temperature Precipitation Wind Pressure Humidity
    00:00 +8°C° 0 mm 1 mps 748 mmHg 84%
    01:00 +8°C° 0 mm 1 mps 748 mmHg 84%
    02:00 +8°C° 0 mm 1 mps 748 mmHg 84%
    03:00 +8°C° 0 mm 1 mps 748 mmHg 84%
    04:00 +8°C° 0 mm 1 mps 748 mmHg 84%
    05:00 +7°C° 0 mm 1 mps 749 mmHg 84%
    06:00 +6°C° 0 mm 2 mps 749 mmHg 83%
    07:00 +8°C° 0 mm 2 mps 749 mmHg 74%
    08:00 +10°C° 0 mm 2 mps 750 mmHg 65%
    09:00 +13°C° 0 mm 2 mps 750 mmHg 56%
    10:00 +15°C° 0 mm 2 mps 750 mmHg 52%
    11:00 +16°C° 0 mm 2 mps 750 mmHg 49%
    12:00 +17°C° 0 mm 2 mps 750 mmHg 45%
    13:00 +17°C° 0 mm 2 mps 749 mmHg 44%
    14:00 +18°C° 0 mm 2 mps 749 mmHg 44%
    15:00 +18°C° 0 mm 2 mps 749 mmHg 44%
    16:00 +16°C° 0 mm 2 mps 749 mmHg 51%
    17:00 +14°C° 0 mm 2 mps 749 mmHg 58%
    18:00 +13°C° 0 mm 2 mps 749 mmHg 65%
    19:00 +12°C° 0 mm 2 mps 749 mmHg 67%
    20:00 +12°C° 0 mm 2 mps 750 mmHg 69%
    21:00 +10°C° 0 mm 2 mps 750 mmHg 71%
    22:00 +10°C° 0 mm 2 mps 749 mmHg 71%
    23:00 +10°C° 0 mm 2 mps 749 mmHg 71%

    26 February, Monday

    Time Temperature Precipitation Wind Pressure Humidity
    00:00 +9°C° 0 mm 2 mps 749 mmHg 70%
    01:00 +9°C° 0 mm 2 mps 748 mmHg 70%
    02:00 +9°C° 0 mm 2 mps 748 mmHg 70%
    03:00 +9°C° 0 mm 3 mps 748 mmHg 69%
    04:00 +9°C° 0 mm 3 mps 747 mmHg 69%
    05:00 +9°C° 0 mm 3 mps 747 mmHg 68%
    06:00 +9°C° 0 mm 3 mps 747 mmHg 67%
    07:00 +11°C° 0 mm 3 mps 747 mmHg 60%
    08:00 +14°C° 0 mm 3 mps 746 mmHg 52%
    09:00 +17°C° 0 mm 3 mps 746 mmHg 44%
    10:00 +19°C° 0 mm 3 mps 746 mmHg 40%
    11:00 +21°C° 0 mm 3 mps 745 mmHg 36%
    12:00 +24°C° 0 mm 3 mps 745 mmHg 31%
    13:00 +23°C° 0 mm 4 mps 744 mmHg 33%
    14:00 +23°C° 0 mm 4 mps 743 mmHg 35%
    15:00 +23°C° 0 mm 5 mps 743 mmHg 37%
    16:00 +20°C° 0 mm 4 mps 743 mmHg 45%
    17:00 +18°C° 0 mm 4 mps 742 mmHg 54%
    18:00 +14°C° 0 mm 3 mps 742 mmHg 63%
    19:00 +15°C° 0 mm 2 mps 743 mmHg 65%
    20:00 +14°C° 0 mm 2 mps 743 mmHg 67%
    21:00 +14°C° 0 mm 2 mps 744 mmHg 69%
    22:00 +14°C° 0 mm 2 mps 745 mmHg 71%
    23:00 +13°C° 0 mm 3 mps 745 mmHg 74%
    Show more